Content
SEND FEEDBACK

Daily
Averages
Monthly
Summary
United States of America

UNIONTOWN, WASHINGTON


Home > North America > United States > Washington
Elevation: 1349 feet     Latitude: 46 23N     Longitude: 117 01W

WEATHER
 
SELECT A DAY
Number of Records: 191,493;   Date Range: 1/1/95 - 12/19/14
 
SHARE

PRINT THIS DATA

[ ← Previous Day ]
WEATHER ALMANAC - JANUARY 3, 2013
[ Next Day → ]
[ °C ]   °F
Weather ElementAverageHighLow
Temperature26 °F33.1 °F (1:56 pm)21 °F (5:56 am)
Dewpoint16.2 °F19 °F (6:56 pm)14 °F (2:56 am)
Humidity67.5 %81 % (10:56 pm)50 % (1:56 pm)
Barometer30.43 in30.50 in (1:56 am)30.36 in (2:56 pm)
Wind Speed3.3 mph13.8 mph (8:56 am)
Weather ElementAverage
Visibility10 mi
Wind DirectionESE (108.7 °)

Weather ElementTotal
Precipitation---
Heating Degree Days38 (Base 65)
Averaged from 23 records on January 3, 2013
WEATHER CONDITIONS BREAKOUT
WIND DIRECTION BREAKOUT
WEATHER BY HOUR - JANUARY 3, 2013
[ °C ]   °F
Local TimeTemperatureDewpointHumidityBarometerVisibilityWind DirectionWind SpeedGust SpeedPrecipitationEventsConditions
1:56 AM21.9 °F15.1 °F75 %30.50 in10.0 miCalmClear
2:56 AM23.0 °F14.0 °F68 %30.49 in10.0 miSE (130°)6.9 mphClear
3:56 AM21.9 °F14.0 °F72 %30.48 in10.0 miCalmClear
4:56 AM21.9 °F14.0 °F72 %30.48 in10.0 miSE (140°)3.5 mphClear
5:56 AM21.0 °F15.1 °F78 %30.48 in10.0 miCalmClear
6:56 AM23.0 °F15.1 °F72 %30.47 in10.0 miEast (90°)8.1 mphClear
7:56 AM21.0 °F14.0 °F74 %30.47 in10.0 miEast (100°)3.5 mphClear
8:56 AM24.1 °F16.0 °F71 %30.46 in10.0 miEast (100°)13.8 mphClear
9:56 AM28.0 °F14.0 °F56 %30.45 in10.0 miSE (140°)11.5 mphClear
10:56 AM28.9 °F15.1 °F56 %30.43 in10.0 miCalmClear
11:56 AM30.9 °F15.1 °F52 %30.40 in10.0 miSouth (170°)4.6 mphClear
12:56 PM32.0 °F17.1 °F54 %30.38 in10.0 miNW (320°)3.5 mphClear
1:56 PM33.1 °F16.0 °F50 %30.37 in10.0 miWNW (300°)3.5 mphClear
2:56 PM33.1 °F16.0 °F50 %30.36 in10.0 miCalmClear
3:56 PM32.0 °F17.1 °F54 %30.36 in10.0 miCalmClear
4:56 PM28.9 °F18.0 °F64 %30.37 in10.0 miWest (260°)3.5 mphClear
5:56 PM28.0 °F18.0 °F66 %30.37 in10.0 miCalmClear
6:56 PM25.0 °F19.0 °F78 %30.40 in10.0 miWSW (250°)6.9 mphClear
7:56 PM24.1 °F18.0 °F77 %30.41 in10.0 miSSW (210°)3.5 mphClear
8:56 PM25.0 °F18.0 °F75 %30.40 in10.0 miCalmClear
9:56 PM24.1 °F18.0 °F77 %30.41 in10.0 miCalmMostly Cloudy
10:56 PM24.1 °F19.0 °F81 %30.42 in10.0 miWNW (290°)3.5 mphOvercast
11:56 PM23.0 °F18.0 °F81 %30.42 in10.0 miCalmClear
Hourly data recorded from KLWS, located miles away from Uniontown, Washington







STORIES FROM OUR PARTNERS